Flag for Germany Weather past 2 weeks in Luckenwalde, Brandenburg, Germany

Now
37 °F

Drizzle. Low clouds.


Feels Like: 31 °F
Forecast: 31 / 39 °F
Wind: 7 mph from Northwest

Location: Potsdam

Current Time: Jan 27, 2015 at 7:06:29 AM

Latest Report: Jan 27, 2015 at 6:00 AM


Visibility: 16 mi

Pressure: 29.86 "Hg

Humidity: 97%

Dew point: 36 °F

Location of LuckenwaldeLocation

Historic Weather in Luckenwalde — Graph

°F

Luckenwalde temperature yesterday

Maximum temperature yesterday: 40 °F (at 3:00 PM)
Minimum temperature yesterday: 33 °F (at 3:00 AM)
Average temperature yesterday: 36 °F

Past Weeks' High & Low Weather Summary

 TemperatureHumidityPressure
High53 °F (Jan 13, 2:00 PM)100% (Jan 20, 8:00 PM)30.32 "Hg (Jan 20, 8:00 PM)
Low25 °F (Jan 19, 9:00 AM)57% (Jan 13, 7:00 PM)29.58 "Hg (Jan 15, 8:00 PM)
Average36 °F89%29.96 "Hg
* Reported Jan 12 6:00 AM — Jan 27 6:00 AM, Luckenwalde, Weather by CustomWeather, © 2014

Note: Actual official high and low records may vary slightly from our data, if they occured in-between our weather recording intervals... More about our weather records

Advertising

Luckenwalde weather history for previous 24 hours

 ConditionsComfort  
Time TempWeatherWind HumidityBarometerVisibility
6:00 AM
Jan 27
37 °FDrizzle. Low clouds.7 mph97%29.86 "Hg16 mi
5:00 AM37 °FDrizzle. Low clouds.7 mph97%29.85 "Hg16 mi
4:00 AM37 °FLight rain. Low clouds.7 mph98%29.85 "Hg16 mi
3:00 AM35 °FLight rain. Low clouds.9 mph96%29.85 "Hg7 mi
2:00 AM38 °FDrizzle. Low clouds.8 mph98%29.83 "Hg5 mi
1:00 AM38 °FDrizzle. Low clouds.8 mph98%29.83 "Hg7 mi
12:00 AM37 °FLight rain. Low clouds.7 mph99%29.83 "Hg2 mi
11:00 PM
Jan 26
35 °FLight rain. Low clouds.6 mph98%29.84 "Hg2 mi
10:00 PM35 °FLight rain. Low clouds.6 mph98%29.86 "Hg4 mi
9:00 PM35 °FLight rain. Low clouds.6 mph98%29.88 "Hg2 mi
8:00 PM35 °FLight rain. Low clouds.6 mph97%29.90 "Hg4 mi
7:00 PM36 °FLight rain. Low clouds.7 mph96%29.93 "Hg14 mi
6:00 PM37 °FLight rain. Overcast.6 mph90%29.96 "Hg12 mi
5:00 PM38 °FOvercast.7 mph84%29.98 "Hg17 mi
4:00 PM39 °FOvercast.6 mph83%30.02 "Hg14 mi
3:00 PM40 °FFog.5 mph82%30.04 "Hg3 mi
2:00 PM39 °FFog.5 mph85%30.07 "Hg4 mi
1:00 PM38 °FFog.5 mph86%30.11 "Hg2 mi
12:00 PM38 °FFog.6 mph88%30.15 "Hg3 mi
11:00 AM37 °FFog.5 mph92%30.18 "Hg3 mi
10:00 AM35 °FFog.3 mph97%30.20 "Hg2 mi
9:00 AM35 °FFog.3 mph98%30.23 "Hg2 mi
8:00 AM35 °FFog.5 mph99%30.23 "Hg2 mi
7:00 AM34 °FFog.5 mph98%30.24 "Hg4 mi
Weather by CustomWeather, © 2014

See weather overviewHow to use our weather pages